{"data":{"norad_id":67596,"epoch":"2026-09-19T04:05:51.355392Z","epoch_age_seconds":184085,"freshness":"STALE","line1":"1 67596U 26018H   26262.17073328  .00019135  00000+0  59341-3 0  9992","line2":"2 67596  97.2864 325.5997 0001314  68.7252 291.4131 15.33451335 36980","mean_motion":15.33451335,"eccentricity":0.0001314,"inclination_deg":97.2864,"raan_deg":325.5997,"arg_perigee_deg":68.7252,"mean_anomaly_deg":291.4131,"bstar":0.00059341,"rev_number":3698,"period_min":93.905816711164,"perigee_km":464.62506894183,"apogee_km":466.42358313831,"semimajor_km":6843.6613260401,"source":"CELESTRAK","updated_at":"2026-09-20T09:00:43.602908Z"}}